Regional Weather Roundup
Issued by NWS Sioux Falls, SD

Home | Current Version | Previous Version | Text Only | Print | Product List | Glossary Off
Versions: 1 2 3 4 5 6 7 8 9 10 11 12 13 14 15 16 17 18 19 20 21 22 23 24 25 26 27 28 29 30 31 32 33 34 35 36 37 38 39 40 41 42 43 44 45 46 47 48 49 50

000
ASUS43 KFSD 221802
RWRFSD

WEATHER ROUNDUP FOR SE SOUTH DAKOTA/SW MINNESOTA/NW IOWA
NATIONAL WEATHER SERVICE SIOUX FALLS SD
100 PM CDT SUN OCT 22 2017

NOTE: "FAIR" INDICATES FEW OR NO CLOUDS BELOW 12,000 FEET WITH NO
SIGNIFICANT WEATHER AND OR OBSTRUCTIONS TO VISIBILITY.


SDZ038>040-050-052>070-221900-
SOUTHEAST SOUTH DAKOTA

CITY           SKY/WX    TMP DP  RH WIND       PRES   REMARKS
BROOKINGS      SUNNY     61  30  31 SW16      29.98F
CHAMBERLAIN    SUNNY     61  32  33 SW15      29.95F
6HR MIN TEMP:  33; 6HR MAX TEMP:  61;

HURON          SUNNY     63  32  31 S22G29    29.94F
6HR MIN TEMP:  36; 6HR MAX TEMP:  64;

MADISON        FAIR      57  32  38 SW17G24   30.00F
MITCHELL       SUNNY     64  32  30 S18       29.97F
6HR MIN TEMP:  39; 6HR MAX TEMP:  64;

SIOUX FALLS    SUNNY     62  35  36 SW12G18   30.02F
6HR MIN TEMP:  38; 6HR MAX TEMP:  62;

WINNER         FAIR      64  28  25 SW21G28   29.96F
YANKTON        SUNNY     65  32  29 SW13G18   30.01F
$$

MNZ071-072-080-081-089-090-097-098-221900-
SOUTHWEST MINNESOTA

CITY           SKY/WX    TMP DP  RH WIND       PRES   REMARKS
FAIRMONT       SUNNY     61  32  33 W13       30.03F
JACKSON        SUNNY     61  30  31 W14       30.03F
LUVERNE        SUNNY     61  28  29 W16       30.03F
MARSHALL       SUNNY     62  32  32 SW9       30.00F
6HR MIN TEMP:  42; 6HR MAX TEMP:  62;

MONTEVIDEO     SUNNY     64  30  27 W6        29.97F
PIPESTONE      SUNNY     61  28  29 SW12      30.01F
REDWOOD FALLS  SUNNY     62  30  29 W13       29.99F
TRACY          SUNNY     62  32  32 SW12G18   30.01F
WORTHINGTON    SUNNY     60  33  36 SW12      30.04F
$$

IAZ001>003-012>014-020>022-031-032-NEZ013-014-SDZ071-221900-
NORTHWEST IOWA

CITY           SKY/WX    TMP DP  RH WIND       PRES   REMARKS
DENISON        SUNNY     63  32  31 W12       30.09F
ESTHERVILLE    SUNNY     61  33  35 W13G18    30.04S
LE MARS        SUNNY     64  27  24 W9G18     30.04F
ORANGE CITY    SUNNY     64  34  32 W13       30.04F
SHELDON        SUNNY     63  30  29 SW10G16   30.02F
SIOUX CITY     SUNNY     65  32  29 SW10      30.05F
6HR MIN TEMP:  34; 6HR MAX TEMP:  66;

SPENCER        SUNNY     64  31  28 W13       30.05F
6HR MIN TEMP:  37; 6HR MAX TEMP:  64;

STORM LAKE     SUNNY     63  30  29 W9G16     30.07S
$$

ABBREVIATIONS USED IN REMARKS
   TC - TEMPERATURE IN CELSIUS
  WCI - WIND CHILL INDEX
   HX - HEAT INDEX
  VSB - VISIBILITY





USA.gov is the U.S. government's official web portal to all federal, state and local government web resources and services.